Flag for Germany Weather for the Past 2 Weeks in Biberach an der Riss, Baden-Württemberg, Germany

Now
61 °F

Broken clouds.


Feels Like: 61 °F
Forecast: 41 / 52 °F
Wind: 7 mph from Northeast

Location: Laupheim Airport

Current Time: Apr 30, 2016 at 5:47:11 PM

Latest Report: Apr 30, 2016 at 4:20 PM


Visibility: N/A

Pressure: 29.89 "Hg (28.06 "Hg at 536m altitude)

Humidity: 39%

Dew Point: 36 °F

Location of Biberach an der RissLocation

Historic Weather in Biberach an der Riss — Graph

°F

Biberach an der Riss Temperature Yesterday

Maximum temperature yesterday: 57 °F (at 4:20 PM)
Minimum temperature yesterday: 28 °F (at 6:20 AM)
Average temperature yesterday: 44 °F

High & Low Weather Summary for the Past Weeks

 TemperatureHumidityPressure
High64 °F (Apr 21, 3:20 PM)100% (Apr 16, 4:20 AM)30.36 "Hg (Apr 16, 4:20 AM)
Low28 °F (Apr 28, 4:20 AM)33% (Apr 29, 7:20 PM)29.59 "Hg (Apr 26, 7:20 AM)
Average44 °F74%29.95 "Hg
* Reported Apr 15 4:20 PM — Apr 30 4:20 PM, Biberach an der Riss, Weather by CustomWeather, © 2016

Note: Actual official high and low records may vary slightly from our data, if they occured in-between our weather recording intervals... More about our weather records

Advertising

Biberach an der Riss Weather History for the Previous 24 Hours

Scroll right to see more
 ConditionsComfort  
Time TempWeatherWind HumidityBarometerVisibility
4:20 PM
Sat, Apr 30
61 °FBroken clouds.7 mph39%29.89 "HgN/A
3:20 PM63 °FBroken clouds.8 mph37%29.92 "HgN/A
2:20 PM61 °FPartly sunny.5 mph39%29.92 "HgN/A
1:20 PM61 °FPartly sunny.3 mph39%29.95 "HgN/A
12:20 PM59 °FPartly sunny.2 mph48%29.98 "HgN/A
11:20 AM55 °FPartly sunny.2 mph55%29.98 "HgN/A
10:20 AM52 °FScattered clouds.3 mph62%30.01 "HgN/A
9:20 AM46 °FScattered clouds.2 mph71%30.01 "HgN/A
8:20 AM41 °FPartly sunny.2 mph81%30.01 "HgN/A
7:20 AM37 °FScattered clouds.1 mph81%30.01 "HgN/A
6:20 AM34 °FPassing clouds.2 mph87%30.01 "HgN/A
5:20 AM36 °FPassing clouds.2 mph81%30.01 "HgN/A
4:20 AM36 °FPassing clouds.2 mph87%30.01 "HgN/A
3:20 AM37 °FPassing clouds.2 mph81%30.01 "HgN/A
2:20 AM39 °FPassing clouds.2 mph75%30.01 "HgN/A
1:20 AM39 °FPassing clouds.1 mph81%30.01 "HgN/A
12:20 AM41 °FPassing clouds.2 mph76%30.01 "HgN/A
11:20 PM
Fri, Apr 29
43 °FPassing clouds.2 mph66%30.01 "HgN/A
10:20 PM45 °FPassing clouds.3 mph61%30.04 "HgN/A
9:20 PM48 °FPartly sunny.2 mph54%30.01 "HgN/A
8:20 PM54 °FPartly sunny.2 mph41%30.01 "HgN/A
7:20 PM57 °FScattered clouds.7 mph33%30.01 "HgN/A
6:20 PM57 °FScattered clouds.6 mph36%30.01 "HgN/A
5:20 PM57 °FPassing clouds.7 mph36%30.01 "HgN/A
Weather by CustomWeather, © 2016

See weather overviewHow to use our weather pages